User: anonymous   Login
Location: Unspecified
(0.0000°N, 0.0000°E)
Time: 20:04:16
(UTC+00:00)
Language:

NOSS 2-1 (D) - Orbit

View from above orbital plane
View from above orbital plane
View from above satellite
View from above satellite

Ground track
Ground track

The orbit data is extracted from the following two-line orbital elements,

1 20692U 90050D   21135.92610724 0.00000550  00000-0  72236-4 0    03
2 20692  63.3083  83.4456 0895431  51.5913 308.4087 13.42288273    08
Epoch (UTC): 15 May 2021 22:13:35
Eccentricity: 0.0895431
inclination: 63.3083°
perigee height: 431 km
apogee height: 1770 km
right ascension of ascending node: 83.4456°
argument of perigee: 51.5913°
revolutions per day: 13.42288273
mean anomaly at epoch: 308.4087°
orbit number at epoch: 0

The dashed part of the orbit path shows where the satellite is in the earth's shadow,  

DLR